Location: Newark
(34.0131°N, 4.3314°W)
Time: 00:19:12
(UTC+00:00)

Explorer 7 - Pass Details

Date: 15 October 2019
Orbit: 485 x 680 km, 50.3° (Epoch: 22 November)

Event Time Altitude Azimuth Distance (km) Brightness Sun altitude
Rises 12:50:51 0° 235° (SW) 2,540 10.7 46.0°
Reaches altitude 10° 12:53:01 10° 238° (WSW) 1,657 9.9 45.8°
Maximum altitude 12:56:43 63° 321° (NW) 542 7.3 45.6°
Drops below altitude 10° 13:00:28 10° 43° (NE) 1,684 9.0 45.3°
Sets 13:02:42 0° 47° (NE) 2,586 9.9 45.2°
